Precipitable_Water
0.42 0.43 0.43 0.42 0.41 0.39 0.37 0.36 0.35 0.36 0.36 0.36 0.35 0.35 0.36 0.35 0.34 0.35 0.36 0.37 0.38 0.38 0.39 0.39 0.40 0.41 0.42 0.45 0.46 0.47 0.47 0.37 0.40 0.41 0.37 0.39 0.49 0.51 0.52 0.49 0.45 0.42 0.48 0.59 0.83 0.82 0.95 1.07 1.14 1.35 1.26 1.33 1.24 1.23 1.43 1.45 1.56 1.57 1.32 1.17 1.06 1.21 1.07 1.26 1.30 1.24 1.39 1.30 1.33 1.44 1.48 1.34 1.27 1.37 1.45 1.54 1.39 1.42 1.35 1.44 1.48 1.54 1.64 1.51 1.55 1.52 1.53 1.53
0.42 0.43 0.43 0.44 0.42 0.40 0.39 0.37 0.36 0.36 0.35 0.35 0.36 0.36 0.35 0.35 0.34 0.33 0.33 0.35 0.37 0.38 0.37 0.38 0.38 0.39 0.42 0.44 0.46 0.47 0.40 0.36 0.39 0.42 0.37 0.51 0.45 0.60 0.60 0.52 0.51 0.45 0.51 0.59 0.76 0.70 0.80 0.84 0.95 1.11 1.10 1.09 1.31 1.15 1.35 1.26 1.48 1.31 1.28 1.23 1.01 1.26 1.26 1.51 1.44 1.46 1.38 1.27 1.39 1.44 1.48 1.38 1.29 1.39 1.35 1.29 1.27 1.28 1.27 1.32 1.36 1.36 1.51 1.53 1.51 1.48 1.49 1.43
0.42 0.43 0.43 0.43 0.43 0.42 0.39 0.37 0.37 0.37 0.36 0.36 0.36 0.35 0.36 0.34 0.33 0.33 0.32 0.33 0.35 0.36 0.36 0.36 0.36 0.39 0.41 0.42 0.43 0.44 0.37 0.41 0.48 0.46 0.62 0.62 0.60 0.64 0.65 0.58 0.51 0.49 0.47 0.59 0.76 0.73 0.74 0.83 0.95 1.00 0.98 0.96 1.10 1.02 1.20 1.20 1.32 1.32 1.25 1.12 1.17 1.40 1.45 1.43 1.43 1.37 1.47 1.56 1.45 1.40 1.43 1.39 1.30 1.41 1.34 1.31 1.23 1.27 1.25 1.20 1.23 1.30 1.33 1.37 1.40 1.42 1.42 1.38
0.41 0.41 0.42 0.42 0.42 0.42 0.40 0.38 0.37 0.37 0.36 0.36 0.36 0.36 0.35 0.34 0.33 0.33 0.33 0.32 0.33 0.35 0.35 0.34 0.35 0.40 0.40 0.40 0.42 0.43 0.41 0.42 0.42 0.62 0.73 0.73 0.69 0.66 0.68 0.61 0.53 0.50 0.49 0.80 0.87 0.79 0.86 0.97 1.01 1.01 0.99 0.88 1.02 1.06 1.09 1.17 1.10 1.25 1.27 1.16 1.26 1.50 1.42 1.37 1.47 1.39 1.38 1.46 1.41 1.42 1.38 1.36 1.29 1.43 1.32 1.33 1.20 1.20 1.30 1.35 1.27 1.22 1.26 1.30 1.36 1.37 1.38 1.33
0.40 0.41 0.42 0.42 0.42 0.42 0.41 0.38 0.36 0.36 0.35 0.35 0.35 0.35 0.33 0.32 0.33 0.32 0.33 0.33 0.32 0.32 0.34 0.33 0.37 0.41 0.40 0.41 0.40 0.44 0.36 0.22 0.39 0.57 0.65 0.63 0.70 0.70 0.69 0.61 0.55 0.51 0.49 0.88 0.93 0.82 0.84 0.89 0.98 0.95 0.97 0.87 0.98 0.99 1.05 1.16 1.15 1.22 1.21 1.31 1.29 1.50 1.45 1.38 1.44 1.45 1.37 1.43 1.44 1.40 1.24 1.35 1.38 1.40 1.31 1.31 1.16 1.14 1.32 1.39 1.42 1.37 1.30 1.28 1.29 1.35 1.39 1.31
0.41 0.41 0.41 0.42 0.42 0.43 0.43 0.40 0.37 0.36 0.35 0.34 0.34 0.32 0.31 0.30 0.30 0.31 0.31 0.31 0.31 0.31 0.32 0.34 0.41 0.39 0.41 0.42 0.39 0.39 0.33 0.15 0.42 0.53 0.59 0.60 0.78 0.74 0.72 0.62 0.56 0.53 0.52 0.84 0.84 0.71 0.73 0.80 0.89 0.82 0.83 0.90 0.89 0.92 0.97 1.06 1.25 0.90 1.17 1.23 1.38 1.52 1.56 1.47 1.46 1.43 1.41 1.36 1.39 1.32 1.34 1.47 1.22 1.30 1.32 1.38 1.37 1.40 1.62 1.48 1.52 1.44 1.35 1.32 1.38 1.37 1.34 1.30
0.39 0.39 0.41 0.42 0.43 0.43 0.43 0.40 0.37 0.37 0.36 0.34 0.33 0.32 0.30 0.29 0.29 0.29 0.29 0.29 0.29 0.31 0.32 0.38 0.41 0.42 0.39 0.42 0.44 0.38 0.27 0.28 0.38 0.48 0.57 0.60 0.61 0.79 0.74 0.63 0.59 0.54 0.54 0.72 0.77 0.65 0.65 0.69 0.76 0.78 0.77 0.81 0.90 0.95 0.98 0.94 1.09 1.03 1.07 1.32 1.30 1.41 1.37 1.53 1.42 1.41 1.40 1.33 1.37 1.45 1.40 1.38 1.27 1.13 1.34 1.40 1.43 1.60 1.65 1.48 1.55 1.49 1.37 1.34 1.29 1.34 1.34 1.32
0.40 0.39 0.40 0.41 0.42 0.43 0.44 0.41 0.38 0.37 0.36 0.34 0.33 0.31 0.31 0.30 0.29 0.29 0.28 0.28 0.30 0.32 0.38 0.40 0.39 0.41 0.43 0.37 0.34 0.33 0.31 0.26 0.38 0.41 0.53 0.62 0.66 0.74 0.69 0.61 0.57 0.55 0.53 0.64 0.68 0.58 0.60 0.62 0.65 0.75 0.68 0.71 0.77 0.88 0.99 0.89 0.90 0.88 0.89 1.19 1.30 1.39 1.38 1.44 1.41 1.37 1.35 1.32 1.40 1.45 1.30 1.35 1.31 1.30 1.30 1.34 1.45 1.47 1.53 1.58 1.53 1.45 1.36 1.31 1.26 1.28 1.33 1.33
0.39 0.39 0.40 0.40 0.42 0.43 0.43 0.41 0.39 0.38 0.36 0.35 0.33 0.32 0.30 0.30 0.29 0.28 0.28 0.29 0.33 0.39 0.41 0.42 0.42 0.43 0.46 0.37 0.26 0.24 0.26 0.37 0.37 0.39 0.51 0.65 0.58 0.62 0.63 0.57 0.58 0.56 0.57 0.70 0.72 0.63 0.61 0.58 0.65 0.64 0.55 0.58 0.72 0.75 0.90 0.82 0.74 0.83 0.87 1.04 1.16 1.23 1.33 1.37 1.36 1.35 1.34 1.34 1.35 1.26 1.26 1.38 1.30 1.56 1.22 1.39 1.42 1.50 1.52 1.51 1.45 1.36 1.31 1.27 1.23 1.25 1.27 1.31
0.40 0.39 0.40 0.41 0.42 0.43 0.43 0.42 0.40 0.38 0.37 0.35 0.34 0.33 0.31 0.29 0.28 0.28 0.29 0.33 0.39 0.42 0.41 0.41 0.45 0.46 0.38 0.30 0.34 0.23 0.36 0.43 0.39 0.42 0.49 0.53 0.48 0.52 0.61 0.64 0.58 0.63 0.66 0.70 0.69 0.63 0.59 0.62 0.60 0.62 0.62 0.63 0.62 0.60 0.82 0.80 0.78 1.00 0.87 0.86 0.97 1.17 1.26 1.33 1.27 1.32 1.33 1.32 1.29 1.20 1.25 1.33 1.37 1.35 1.20 1.45 1.51 1.52 1.46 1.42 1.38 1.32 1.25 1.29 1.24 1.27 1.29 1.29
0.41 0.40 0.41 0.43 0.46 0.46 0.44 0.43 0.40 0.38 0.37 0.36 0.35 0.33 0.32 0.29 0.29 0.30 0.33 0.37 0.41 0.41 0.38 0.43 0.46 0.43 0.35 0.41 0.22 0.24 0.38 0.32 0.32 0.40 0.47 0.61 0.46 0.46 0.57 0.69 0.68 0.76 0.80 0.78 0.68 0.63 0.62 0.61 0.62 0.65 0.55 0.54 0.63 0.63 0.73 0.79 0.84 0.89 0.93 0.94 0.94 0.99 1.12 1.27 1.28 1.28 1.33 1.23 1.31 1.25 1.28 1.36 1.38 1.34 1.32 1.41 1.50 1.49 1.40 1.36 1.32 1.31 1.28 1.27 1.26 1.26 1.27 1.30
0.42 0.41 0.42 0.45 0.48 0.48 0.47 0.44 0.40 0.38 0.37 0.37 0.36 0.34 0.32 0.30 0.30 0.34 0.37 0.40 0.39 0.34 0.39 0.45 0.47 0.43 0.44 0.35 0.31 0.27 0.35 0.30 0.33 0.35 0.45 0.54 0.52 0.50 0.65 0.81 0.77 0.86 0.86 0.78 0.65 0.61 0.59 0.60 0.61 0.55 0.46 0.49 0.44 0.61 0.63 0.69 0.70 0.74 0.77 0.70 0.77 0.84 0.87 1.05 1.14 1.22 1.26 1.23 1.29 1.23 1.21 1.20 1.30 1.14 1.30 1.43 1.51 1.52 1.41 1.33 1.32 1.34 1.29 1.28 1.26 1.25 1.25 1.27
0.42 0.42 0.44 0.48 0.50 0.51 0.50 0.47 0.42 0.39 0.38 0.37 0.36 0.34 0.32 0.31 0.33 0.35 0.39 0.38 0.36 0.35 0.44 0.48 0.48 0.49 0.49 0.40 0.28 0.31 0.36 0.41 0.37 0.27 0.34 0.43 0.63 0.55 0.63 0.78 0.86 0.90 0.93 0.82 0.68 0.61 0.58 0.58 0.59 0.49 0.56 0.46 0.41 0.46 0.59 0.63 0.61 0.70 0.73 0.69 0.68 0.69 0.70 0.87 1.06 1.16 1.17 1.18 1.32 1.22 0.83 0.99 1.16 1.23 1.36 1.43 1.41 1.51 1.41 1.35 1.34 1.35 1.31 1.25 1.25 1.22 1.21 1.29
0.43 0.44 0.47 0.50 0.53 0.53 0.52 0.50 0.45 0.42 0.39 0.38 0.36 0.34 0.32 0.33 0.35 0.37 0.38 0.40 0.37 0.42 0.48 0.49 0.52 0.50 0.42 0.26 0.29 0.31 0.31 0.40 0.37 0.32 0.27 0.37 0.44 0.49 0.56 0.67 0.82 0.89 0.97 0.86 0.80 0.71 0.60 0.60 0.59 0.53 0.60 0.51 0.36 0.56 0.52 0.54 0.62 0.60 0.65 0.64 0.55 0.53 0.57 0.80 0.92 1.04 1.03 1.18 1.21 1.25 0.88 0.95 1.12 1.32 1.41 1.47 1.49 1.41 1.43 1.40 1.36 1.34 1.30 1.24 1.22 1.22 1.18 1.25
0.44 0.45 0.48 0.52 0.54 0.54 0.52 0.50 0.46 0.43 0.41 0.40 0.37 0.35 0.32 0.33 0.36 0.38 0.40 0.39 0.41 0.51 0.49 0.54 0.52 0.49 0.49 0.30 0.37 0.30 0.37 0.41 0.43 0.33 0.24 0.37 0.49 0.45 0.43 0.58 0.67 0.82 0.90 0.86 0.79 0.75 0.67 0.60 0.54 0.47 0.47 0.58 0.49 0.41 0.43 0.45 0.50 0.53 0.49 0.46 0.50 0.49 0.56 0.69 0.89 0.95 0.91 1.10 1.17 1.11 0.85 0.94 1.11 1.25 1.36 1.42 1.49 1.41 1.43 1.43 1.37 1.35 1.28 1.26 1.21 1.19 1.18 1.20
0.45 0.46 0.49 0.53 0.54 0.54 0.53 0.50 0.46 0.43 0.41 0.41 0.39 0.35 0.35 0.40 0.39 0.40 0.44 0.42 0.47 0.54 0.59 0.50 0.48 0.49 0.37 0.24 0.29 0.40 0.39 0.26 0.23 0.26 0.29 0.27 0.33 0.49 0.54 0.53 0.63 0.73 0.82 0.79 0.83 0.74 0.63 0.59 0.45 0.45 0.48 0.52 0.35 0.32 0.36 0.34 0.37 0.47 0.44 0.43 0.45 0.49 0.53 0.63 0.83 0.94 0.98 1.06 1.09 1.03 0.88 1.00 1.06 1.24 1.35 1.45 1.45 1.38 1.34 1.45 1.44 1.33 1.29 1.24 1.22 1.20 1.17 1.19
0.44 0.46 0.49 0.53 0.55 0.54 0.52 0.49 0.47 0.44 0.41 0.40 0.41 0.36 0.41 0.44 0.42 0.44 0.42 0.45 0.48 0.55 0.52 0.44 0.40 0.45 0.39 0.25 0.31 0.26 0.21 0.24 0.26 0.26 0.31 0.32 0.25 0.47 0.56 0.52 0.58 0.65 0.68 0.69 0.69 0.69 0.62 0.52 0.52 0.49 0.48 0.39 0.32 0.27 0.25 0.25 0.26 0.34 0.41 0.40 0.45 0.46 0.50 0.53 0.90 0.96 0.98 0.95 0.94 1.03 0.93 0.93 1.11 1.18 1.27 1.41 1.48 1.32 1.39 1.46 1.32 1.36 1.33 1.25 1.24 1.20 1.17 1.14
0.45 0.46 0.48 0.53 0.55 0.54 0.51 0.49 0.46 0.44 0.41 0.41 0.42 0.39 0.40 0.47 0.49 0.49 0.47 0.47 0.57 0.56 0.57 0.54 0.43 0.44 0.28 0.26 0.18 0.17 0.21 0.22 0.23 0.24 0.26 0.32 0.28 0.40 0.50 0.49 0.61 0.64 0.56 0.53 0.61 0.54 0.60 0.42 0.43 0.32 0.34 0.31 0.32 0.24 0.18 0.19 0.23 0.28 0.35 0.37 0.39 0.44 0.48 0.52 0.70 0.92 0.93 0.93 0.94 0.99 0.92 1.01 1.09 1.16 1.21 1.30 1.38 1.32 1.35 1.32 1.40 1.33 1.28 1.27 1.21 1.22 1.18 1.13
0.46 0.46 0.48 0.52 0.55 0.53 0.51 0.48 0.45 0.43 0.41 0.42 0.43 0.48 0.48 0.53 0.51 0.49 0.41 0.48 0.38 0.44 0.47 0.30 0.22 0.19 0.16 0.20 0.22 0.20 0.21 0.24 0.26 0.27 0.27 0.28 0.27 0.40 0.55 0.62 0.61 0.56 0.41 0.40 0.45 0.47 0.50 0.38 0.35 0.29 0.25 0.24 0.25 0.23 0.18 0.20 0.25 0.27 0.34 0.36 0.39 0.38 0.41 0.46 0.63 0.84 0.92 0.89 0.84 0.91 0.85 0.87 0.96 1.05 1.17 1.22 1.29 1.30 1.33 1.31 1.45 1.44 1.29 1.23 1.21 1.20 1.19 1.15
0.48 0.46 0.46 0.50 0.54 0.53 0.49 0.48 0.45 0.41 0.43 0.41 0.41 0.48 0.47 0.38 0.39 0.38 0.35 0.36 0.20 0.17 0.18 0.19 0.19 0.18 0.19 0.19 0.18 0.20 0.24 0.26 0.23 0.28 0.31 0.32 0.27 0.43 0.50 0.48 0.51 0.49 0.40 0.33 0.41 0.40 0.46 0.29 0.25 0.21 0.22 0.23 0.22 0.23 0.21 0.21 0.27 0.29 0.30 0.33 0.35 0.38 0.41 0.48 0.59 0.73 0.91 0.87 0.87 0.88 0.90 0.89 0.94 1.00 1.05 1.19 1.27 1.26 1.22 1.26 1.43 1.39 1.35 1.26 1.20 1.18 1.20 1.20
0.48 0.46 0.45 0.48 0.53 0.53 0.49 0.48 0.46 0.43 0.43 0.43 0.42 0.32 0.22 0.19 0.19 0.23 0.20 0.18 0.15 0.21 0.19 0.20 0.19 0.16 0.17 0.19 0.20 0.20 0.21 0.22 0.24 0.25 0.34 0.34 0.45 0.43 0.43 0.37 0.40 0.33 0.36 0.38 0.39 0.41 0.41 0.28 0.26 0.26 0.24 0.26 0.25 0.23 0.23 0.22 0.25 0.29 0.32 0.29 0.30 0.35 0.36 0.44 0.55 0.67 0.80 0.79 0.82 0.89 0.87 0.90 0.96 0.98 1.01 1.14 1.22 1.15 1.17 1.27 1.47 1.39 1.38 1.36 1.27 1.24 1.24 1.25
0.50 0.47 0.45 0.46 0.52 0.52 0.50 0.47 0.46 0.45 0.43 0.46 0.41 0.28 0.28 0.27 0.28 0.33 0.24 0.21 0.21 0.21 0.21 0.21 0.20 0.21 0.20 0.21 0.22 0.22 0.21 0.20 0.24 0.25 0.31 0.40 0.51 0.34 0.44 0.32 0.35 0.28 0.36 0.36 0.40 0.34 0.30 0.27 0.27 0.30 0.30 0.30 0.30 0.26 0.22 0.21 0.21 0.25 0.28 0.32 0.31 0.30 0.36 0.42 0.51 0.66 0.71 0.71 0.70 0.85 0.84 0.82 0.89 0.92 0.98 1.02 1.08 1.17 1.22 1.34 1.42 1.36 1.34 1.33 1.26 1.23 1.29 1.34
0.52 0.48 0.45 0.46 0.49 0.51 0.50 0.47 0.43 0.48 0.44 0.40 0.33 0.31 0.29 0.33 0.35 0.38 0.30 0.22 0.18 0.22 0.22 0.20 0.20 0.19 0.18 0.23 0.22 0.22 0.18 0.18 0.21 0.23 0.29 0.36 0.47 0.40 0.48 0.32 0.34 0.32 0.35 0.33 0.31 0.31 0.25 0.28 0.31 0.32 0.34 0.31 0.28 0.27 0.23 0.19 0.20 0.22 0.24 0.27 0.29 0.35 0.33 0.32 0.41 0.57 0.68 0.66 0.64 0.71 0.74 0.81 0.87 0.94 1.03 1.07 1.12 1.14 1.19 1.22 1.31 1.50 1.31 1.28 1.24 1.21 1.29 1.35
0.52 0.49 0.47 0.46 0.49 0.50 0.50 0.47 0.45 0.48 0.50 0.37 0.35 0.33 0.39 0.40 0.37 0.34 0.28 0.20 0.19 0.22 0.22 0.22 0.22 0.20 0.17 0.17 0.21 0.21 0.18 0.20 0.17 0.24 0.27 0.27 0.30 0.44 0.45 0.43 0.34 0.32 0.31 0.33 0.31 0.30 0.27 0.31 0.35 0.34 0.35 0.35 0.28 0.27 0.25 0.21 0.16 0.18 0.21 0.23 0.27 0.33 0.38 0.36 0.42 0.51 0.60 0.65 0.66 0.65 0.64 0.69 0.77 0.79 0.90 1.04 1.02 1.01 1.13 1.31 1.44 1.48 1.46 1.45 1.39 1.34 1.33 1.27
0.52 0.48 0.47 0.47 0.48 0.52 0.49 0.48 0.44 0.39 0.38 0.44 0.34 0.38 0.39 0.41 0.36 0.37 0.25 0.25 0.21 0.17 0.27 0.23 0.22 0.21 0.19 0.24 0.24 0.19 0.21 0.20 0.19 0.22 0.27 0.27 0.31 0.35 0.33 0.44 0.39 0.32 0.29 0.34 0.32 0.29 0.29 0.33 0.35 0.34 0.33 0.35 0.31 0.27 0.27 0.24 0.17 0.16 0.16 0.21 0.26 0.31 0.34 0.38 0.42 0.46 0.53 0.52 0.59 0.56 0.48 0.53 0.68 0.71 0.74 0.88 1.00 0.98 1.18 1.23 1.24 1.30 1.28 1.38 1.20 1.25 1.35 1.37
0.52 0.48 0.46 0.48 0.50 0.51 0.51 0.42 0.42 0.38 0.40 0.38 0.36 0.39 0.39 0.40 0.41 0.37 0.29 0.16 0.16 0.21 0.23 0.19 0.19 0.19 0.22 0.20 0.20 0.21 0.21 0.18 0.23 0.25 0.24 0.30 0.30 0.27 0.29 0.26 0.35 0.33 0.34 0.32 0.31 0.30 0.29 0.33 0.32 0.30 0.30 0.32 0.32 0.29 0.29 0.27 0.20 0.16 0.15 0.18 0.21 0.23 0.27 0.34 0.37 0.44 0.42 0.38 0.48 0.54 0.41 0.41 0.58 0.60 0.65 0.73 0.81 0.95 1.18 1.15 1.07 1.16 1.35 1.45 1.32 1.33 1.39 1.39
0.50 0.46 0.46 0.48 0.52 0.54 0.41 0.40 0.47 0.44 0.37 0.36 0.41 0.41 0.40 0.38 0.44 0.36 0.17 0.15 0.11 0.21 0.20 0.22 0.19 0.20 0.22 0.20 0.19 0.21 0.16 0.20 0.27 0.27 0.31 0.33 0.25 0.31 0.20 0.24 0.32 0.34 0.44 0.42 0.32 0.26 0.31 0.30 0.32 0.31 0.28 0.28 0.29 0.27 0.29 0.30 0.23 0.18 0.19 0.19 0.17 0.16 0.21 0.30 0.38 0.42 0.41 0.47 0.50 0.52 0.49 0.42 0.45 0.53 0.60 0.65 0.70 0.78 0.98 1.03 1.04 1.02 1.29 1.34 1.34 1.34 1.46 1.46
0.49 0.46 0.46 0.49 0.52 0.55 0.43 0.43 0.45 0.39 0.37 0.39 0.42 0.40 0.41 0.40 0.37 0.36 0.18 0.08 0.13 0.25 0.20 0.21 0.20 0.25 0.21 0.21 0.20 0.16 0.18 0.23 0.18 0.27 0.32 0.32 0.26 0.25 0.19 0.20 0.24 0.33 0.34 0.40 0.27 0.31 0.32 0.27 0.28 0.28 0.27 0.25 0.24 0.28 0.33 0.33 0.25 0.20 0.20 0.20 0.20 0.17 0.16 0.23 0.35 0.41 0.42 0.41 0.37 0.46 0.50 0.41 0.41 0.53 0.63 0.62 0.58 0.65 0.77 0.92 0.95 0.99 1.14 1.24 1.30 1.36 1.48 1.54
0.47 0.46 0.46 0.50 0.54 0.52 0.54 0.45 0.43 0.41 0.43 0.45 0.43 0.43 0.39 0.49 0.34 0.23 0.19 0.11 0.23 0.20 0.26 0.18 0.25 0.21 0.21 0.21 0.19 0.18 0.18 0.21 0.17 0.26 0.30 0.30 0.29 0.29 0.21 0.25 0.20 0.24 0.33 0.36 0.29 0.39 0.38 0.32 0.30 0.29 0.29 0.24 0.27 0.32 0.34 0.30 0.23 0.23 0.22 0.21 0.21 0.20 0.17 0.16 0.20 0.29 0.35 0.36 0.31 0.39 0.46 0.35 0.38 0.52 0.56 0.62 0.59 0.59 0.67 0.84 0.95 1.03 1.17 1.23 1.33 1.38 1.37 1.40
0.46 0.44 0.47 0.53 0.56 0.61 0.56 0.55 0.50 0.51 0.48 0.48 0.46 0.43 0.40 0.35 0.31 0.16 0.12 0.09 0.21 0.15 0.19 0.21 0.19 0.18 0.18 0.17 0.17 0.19 0.17 0.19 0.19 0.21 0.22 0.23 0.32 0.24 0.21 0.29 0.24 0.21 0.22 0.31 0.34 0.37 0.41 0.42 0.34 0.30 0.28 0.31 0.30 0.29 0.29 0.28 0.27 0.28 0.23 0.20 0.22 0.21 0.19 0.17 0.15 0.17 0.20 0.21 0.27 0.37 0.42 0.40 0.35 0.46 0.51 0.53 0.56 0.61 0.66 0.77 0.99 1.05 1.15 1.24 1.28 1.32 1.27 1.32
0.48 0.48 0.50 0.55 0.50 0.51 0.46 0.47 0.50 0.52 0.51 0.49 0.47 0.43 0.37 0.32 0.20 0.18 0.13 0.20 0.23 0.21 0.22 0.19 0.17 0.19 0.17 0.16 0.16 0.18 0.18 0.18 0.19 0.18 0.22 0.28 0.19 0.18 0.22 0.22 0.23 0.19 0.19 0.21 0.24 0.31 0.36 0.41 0.36 0.33 0.33 0.34 0.33 0.28 0.29 0.29 0.28 0.27 0.24 0.20 0.19 0.19 0.20 0.17 0.15 0.14 0.12 0.12 0.18 0.30 0.38 0.44 0.33 0.41 0.53 0.58 0.62 0.65 0.70 0.72 0.91 1.00 1.12 1.26 1.30 1.32 1.32 1.38
0.52 0.51 0.53 0.55 0.53 0.55 0.43 0.43 0.53 0.54 0.52 0.50 0.44 0.38 0.31 0.22 0.24 0.12 0.13 0.27 0.16 0.18 0.17 0.17 0.18 0.17 0.17 0.17 0.16 0.16 0.16 0.17 0.21 0.19 0.20 0.24 0.26 0.25 0.25 0.19 0.26 0.19 0.15 0.15 0.15 0.22 0.26 0.31 0.41 0.43 0.40 0.32 0.31 0.28 0.28 0.30 0.30 0.27 0.26 0.24 0.17 0.15 0.16 0.12 0.13 0.10 0.09 0.09 0.16 0.24 0.34 0.35 0.36 0.43 0.54 0.56 0.62 0.66 0.68 0.71 0.92 0.96 1.02 1.11 1.27 1.25 1.30 1.41
0.55 0.54 0.56 0.56 0.56 0.53 0.57 0.56 0.56 0.54 0.54 0.46 0.40 0.37 0.27 0.20 0.16 0.22 0.19 0.19 0.15 0.20 0.19 0.20 0.18 0.17 0.18 0.16 0.17 0.17 0.18 0.15 0.18 0.20 0.20 0.19 0.17 0.23 0.25 0.21 0.28 0.25 0.20 0.22 0.18 0.17 0.21 0.29 0.32 0.40 0.43 0.40 0.33 0.25 0.24 0.26 0.30 0.29 0.25 0.24 0.19 0.14 0.14 0.11 0.11 0.12 0.11 0.12 0.15 0.24 0.31 0.29 0.37 0.42 0.52 0.59 0.62 0.67 0.68 0.69 0.74 0.94 0.99 1.10 1.18 1.20 1.36 1.51
0.57 0.57 0.55 0.58 0.59 0.60 0.58 0.60 0.57 0.55 0.49 0.46 0.37 0.34 0.25 0.17 0.17 0.28 0.22 0.21 0.20 0.24 0.22 0.19 0.18 0.18 0.17 0.15 0.19 0.18 0.15 0.22 0.19 0.17 0.17 0.21 0.22 0.20 0.27 0.24 0.19 0.20 0.17 0.21 0.23 0.22 0.16 0.19 0.24 0.30 0.32 0.44 0.36 0.30 0.27 0.28 0.32 0.31 0.31 0.28 0.24 0.20 0.17 0.12 0.11 0.10 0.10 0.13 0.15 0.16 0.24 0.25 0.28 0.32 0.50 0.52 0.64 0.67 0.71 0.73 0.73 0.87 1.03 1.13 1.22 1.24 1.31 1.55
0.61 0.60 0.59 0.63 0.66 0.68 0.62 0.54 0.54 0.54 0.50 0.40 0.34 0.30 0.21 0.20 0.24 0.22 0.22 0.21 0.22 0.21 0.19 0.21 0.19 0.17 0.18 0.20 0.21 0.21 0.16 0.17 0.20 0.16 0.17 0.18 0.20 0.21 0.23 0.29 0.26 0.21 0.22 0.16 0.21 0.24 0.23 0.21 0.29 0.32 0.32 0.42 0.39 0.36 0.34 0.30 0.32 0.36 0.35 0.34 0.28 0.24 0.25 0.18 0.18 0.15 0.16 0.14 0.15 0.18 0.14 0.26 0.31 0.41 0.46 0.56 0.58 0.62 0.71 0.73 0.73 0.76 1.03 1.11 1.17 1.21 1.18 1.19
0.65 0.67 0.64 0.63 0.57 0.56 0.54 0.55 0.54 0.54 0.47 0.39 0.32 0.26 0.24 0.26 0.23 0.26 0.25 0.27 0.24 0.21 0.22 0.22 0.21 0.18 0.18 0.19 0.24 0.22 0.25 0.16 0.18 0.18 0.17 0.19 0.26 0.27 0.33 0.32 0.25 0.23 0.22 0.19 0.27 0.21 0.20 0.21 0.28 0.33 0.37 0.34 0.40 0.40 0.34 0.35 0.24 0.32 0.34 0.29 0.29 0.32 0.28 0.23 0.26 0.29 0.24 0.19 0.16 0.21 0.23 0.21 0.28 0.38 0.43 0.47 0.52 0.56 0.60 0.67 0.69 0.71 0.92 1.04 1.04 1.20 1.17 1.21
0.61 0.62 0.60 0.61 0.57 0.58 0.57 0.56 0.56 0.51 0.47 0.40 0.32 0.28 0.29 0.30 0.31 0.28 0.29 0.25 0.25 0.24 0.22 0.18 0.20 0.20 0.20 0.19 0.21 0.22 0.23 0.22 0.19 0.19 0.16 0.23 0.22 0.28 0.27 0.29 0.28 0.24 0.24 0.22 0.19 0.27 0.25 0.28 0.31 0.33 0.32 0.37 0.42 0.44 0.39 0.35 0.35 0.36 0.30 0.32 0.38 0.37 0.32 0.26 0.20 0.25 0.25 0.20 0.18 0.19 0.18 0.22 0.20 0.16 0.31 0.38 0.44 0.53 0.57 0.58 0.62 0.69 0.82 0.94 1.02 1.17 1.18 1.23
0.60 0.64 0.58 0.58 0.59 0.60 0.59 0.58 0.52 0.50 0.44 0.37 0.30 0.31 0.33 0.28 0.32 0.30 0.30 0.26 0.26 0.25 0.20 0.20 0.22 0.23 0.20 0.20 0.20 0.23 0.24 0.18 0.21 0.23 0.19 0.22 0.23 0.36 0.34 0.29 0.31 0.26 0.25 0.26 0.19 0.24 0.29 0.22 0.30 0.37 0.41 0.39 0.38 0.39 0.40 0.40 0.37 0.35 0.35 0.43 0.32 0.27 0.24 0.26 0.24 0.20 0.22 0.20 0.22 0.24 0.23 0.23 0.25 0.19 0.25 0.32 0.37 0.46 0.52 0.56 0.58 0.61 0.70 0.74 0.82 1.01 1.15 1.15
0.68 0.67 0.54 0.59 0.64 0.60 0.59 0.57 0.51 0.47 0.42 0.33 0.31 0.29 0.31 0.30 0.32 0.30 0.30 0.28 0.26 0.25 0.21 0.23 0.21 0.24 0.23 0.19 0.20 0.22 0.24 0.18 0.22 0.21 0.19 0.22 0.19 0.34 0.32 0.33 0.30 0.31 0.27 0.25 0.22 0.25 0.31 0.21 0.27 0.36 0.37 0.43 0.42 0.40 0.31 0.34 0.36 0.36 0.42 0.41 0.44 0.35 0.30 0.25 0.24 0.25 0.28 0.24 0.23 0.21 0.29 0.23 0.28 0.27 0.25 0.27 0.36 0.38 0.41 0.47 0.51 0.54 0.58 0.60 0.67 0.79 0.96 1.11
0.62 0.57 0.48 0.62 0.64 0.60 0.58 0.56 0.50 0.46 0.38 0.32 0.32 0.30 0.33 0.30 0.31 0.32 0.32 0.28 0.28 0.25 0.25 0.24 0.26 0.22 0.23 0.22 0.23 0.20 0.23 0.21 0.22 0.22 0.22 0.24 0.22 0.34 0.32 0.35 0.28 0.28 0.28 0.27 0.23 0.28 0.24 0.30 0.21 0.31 0.36 0.39 0.34 0.37 0.32 0.33 0.31 0.30 0.32 0.34 0.41 0.38 0.37 0.34 0.31 0.26 0.25 0.24 0.24 0.22 0.19 0.24 0.30 0.37 0.36 0.32 0.30 0.34 0.35 0.36 0.40 0.44 0.48 0.54 0.58 0.68 0.81 0.99
0.65 0.54 0.50 0.64 0.63 0.60 0.59 0.53 0.46 0.38 0.33 0.37 0.36 0.33 0.34 0.32 0.34 0.33 0.33 0.30 0.29 0.31 0.25 0.25 0.26 0.24 0.24 0.24 0.21 0.25 0.23 0.24 0.23 0.21 0.20 0.21 0.21 0.23 0.37 0.33 0.31 0.26 0.26 0.25 0.24 0.26 0.24 0.25 0.17 0.22 0.30 0.30 0.32 0.44 0.44 0.41 0.39 0.34 0.30 0.35 0.40 0.37 0.32 0.27 0.25 0.30 0.26 0.24 0.24 0.24 0.22 0.27 0.29 0.30 0.30 0.32 0.36 0.37 0.37 0.36 0.36 0.38 0.38 0.46 0.56 0.63 0.73 0.83
0.57 0.43 0.48 0.62 0.63 0.60 0.53 0.42 0.40 0.40 0.36 0.34 0.33 0.36 0.36 0.36 0.33 0.34 0.34 0.35 0.30 0.29 0.32 0.26 0.27 0.24 0.25 0.23 0.24 0.24 0.23 0.22 0.23 0.22 0.24 0.23 0.29 0.25 0.33 0.33 0.31 0.28 0.25 0.24 0.27 0.32 0.34 0.33 0.28 0.23 0.26 0.32 0.33 0.38 0.44 0.45 0.43 0.41 0.39 0.34 0.41 0.41 0.39 0.31 0.25 0.28 0.30 0.28 0.31 0.29 0.26 0.29 0.38 0.36 0.33 0.30 0.30 0.35 0.39 0.36 0.35 0.36 0.37 0.38 0.47 0.57 0.67 0.78
0.50 0.46 0.60 0.61 0.62 0.58 0.49 0.39 0.38 0.39 0.36 0.38 0.39 0.36 0.37 0.36 0.34 0.33 0.32 0.33 0.29 0.32 0.28 0.28 0.28 0.26 0.28 0.27 0.26 0.24 0.24 0.23 0.24 0.23 0.26 0.27 0.27 0.32 0.35 0.33 0.32 0.28 0.27 0.27 0.30 0.38 0.40 0.28 0.24 0.24 0.29 0.36 0.43 0.41 0.42 0.45 0.44 0.43 0.43 0.40 0.35 0.37 0.39 0.36 0.33 0.34 0.32 0.33 0.29 0.26 0.25 0.32 0.42 0.46 0.43 0.37 0.32 0.33 0.38 0.36 0.36 0.36 0.38 0.38 0.41 0.50 0.61 0.75
0.53 0.51 0.53 0.60 0.61 0.57 0.47 0.36 0.34 0.34 0.35 0.36 0.38 0.36 0.37 0.37 0.36 0.32 0.31 0.32 0.31 0.30 0.28 0.28 0.28 0.31 0.26 0.30 0.26 0.24 0.29 0.22 0.28 0.27 0.26 0.30 0.29 0.38 0.34 0.35 0.34 0.26 0.28 0.33 0.31 0.41 0.28 0.31 0.25 0.22 0.20 0.22 0.32 0.41 0.41 0.45 0.43 0.41 0.39 0.40 0.39 0.35 0.37 0.40 0.41 0.45 0.36 0.35 0.33 0.27 0.21 0.25 0.45 0.47 0.44 0.40 0.35 0.31 0.28 0.29 0.32 0.34 0.41 0.44 0.44 0.48 0.60 0.75
0.58 0.63 0.54 0.57 0.57 0.52 0.41 0.39 0.37 0.36 0.35 0.35 0.35 0.33 0.34 0.37 0.37 0.34 0.33 0.32 0.33 0.32 0.28 0.30 0.31 0.31 0.27 0.30 0.29 0.30 0.30 0.28 0.25 0.30 0.31 0.32 0.33 0.38 0.37 0.37 0.35 0.27 0.30 0.37 0.37 0.40 0.32 0.32 0.29 0.21 0.17 0.15 0.18 0.25 0.30 0.34 0.35 0.40 0.42 0.40 0.39 0.38 0.38 0.37 0.35 0.42 0.35 0.39 0.39 0.33 0.27 0.31 0.39 0.51 0.50 0.43 0.35 0.32 0.32 0.34 0.37 0.38 0.42 0.42 0.48 0.55 0.74 0.79
0.48 0.42 0.48 0.50 0.51 0.45 0.43 0.44 0.40 0.37 0.34 0.33 0.33 0.30 0.33 0.33 0.35 0.34 0.33 0.28 0.34 0.33 0.32 0.32 0.31 0.32 0.29 0.29 0.29 0.30 0.31 0.34 0.29 0.30 0.32 0.33 0.34 0.35 0.38 0.39 0.36 0.31 0.31 0.31 0.29 0.32 0.30 0.33 0.33 0.32 0.28 0.24 0.27 0.41 0.49 0.46 0.42 0.36 0.38 0.39 0.40 0.42 0.42 0.44 0.44 0.41 0.36 0.39 0.38 0.42 0.40 0.36 0.32 0.37 0.47 0.49 0.39 0.31 0.28 0.38 0.47 0.38 0.36 0.41 0.49 0.59 0.65 0.93
0.54 0.42 0.40 0.37 0.50 0.46 0.41 0.42 0.40 0.41 0.37 0.41 0.35 0.35 0.31 0.30 0.31 0.35 0.37 0.33 0.36 0.31 0.32 0.31 0.32 0.28 0.32 0.32 0.32 0.33 0.34 0.31 0.34 0.32 0.32 0.33 0.36 0.38 0.41 0.39 0.37 0.35 0.32 0.26 0.26 0.25 0.26 0.24 0.27 0.30 0.32 0.31 0.35 0.40 0.46 0.45 0.39 0.38 0.37 0.39 0.41 0.40 0.45 0.43 0.39 0.36 0.44 0.42 0.36 0.45 0.50 0.50 0.45 0.43 0.52 0.55 0.70 0.63 0.64 0.62 0.58 0.61 0.48 0.57 0.62 0.59 0.59 0.74
0.43 0.45 0.50 0.48 0.41 0.33 0.40 0.35 0.42 0.38 0.40 0.40 0.34 0.36 0.30 0.31 0.31 0.30 0.36 0.37 0.33 0.36 0.29 0.35 0.33 0.34 0.34 0.35 0.36 0.27 0.30 0.30 0.32 0.30 0.35 0.36 0.36 0.39 0.38 0.40 0.36 0.35 0.35 0.30 0.30 0.28 0.24 0.20 0.22 0.24 0.25 0.30 0.33 0.35 0.40 0.41 0.42 0.40 0.39 0.38 0.38 0.42 0.45 0.43 0.41 0.43 0.48 0.44 0.41 0.47 0.52 0.50 0.52 0.54 0.67 0.77 0.75 0.74 0.67 0.60 0.68 0.72 0.78 0.83 0.79 0.63 0.51 0.57
0.53 0.50 0.49 0.53 0.44 0.41 0.40 0.40 0.43 0.40 0.38 0.39 0.35 0.36 0.33 0.32 0.32 0.32 0.32 0.32 0.34 0.33 0.34 0.27 0.32 0.33 0.34 0.38 0.34 0.30 0.31 0.25 0.27 0.39 0.34 0.34 0.36 0.35 0.31 0.34 0.37 0.39 0.36 0.32 0.29 0.29 0.26 0.22 0.23 0.24 0.25 0.26 0.30 0.31 0.36 0.37 0.40 0.41 0.41 0.40 0.40 0.42 0.43 0.46 0.44 0.47 0.49 0.48 0.53 0.56 0.55 0.55 0.59 0.72 0.74 0.77 0.81 0.71 0.66 0.68 0.67 0.78 0.89 0.86 0.80 0.77 0.69 0.69
0.47 0.50 0.45 0.51 0.49 0.44 0.44 0.43 0.41 0.40 0.36 0.39 0.38 0.34 0.36 0.34 0.34 0.35 0.38 0.34 0.31 0.34 0.38 0.32 0.33 0.34 0.37 0.37 0.37 0.31 0.35 0.34 0.31 0.29 0.37 0.35 0.35 0.34 0.33 0.35 0.34 0.38 0.39 0.33 0.32 0.29 0.26 0.23 0.26 0.27 0.24 0.23 0.25 0.29 0.32 0.34 0.36 0.36 0.40 0.42 0.42 0.42 0.43 0.43 0.44 0.44 0.46 0.46 0.51 0.55 0.53 0.55 0.63 0.84 0.85 0.84 0.83 0.73 0.67 0.68 0.81 0.89 0.88 0.86 0.82 0.84 0.88 0.89
0.61 0.63 0.61 0.52 0.43 0.44 0.47 0.45 0.41 0.39 0.37 0.37 0.37 0.36 0.37 0.37 0.36 0.38 0.37 0.40 0.35 0.33 0.37 0.33 0.36 0.36 0.39 0.39 0.35 0.33 0.38 0.38 0.36 0.36 0.38 0.36 0.29 0.37 0.32 0.35 0.37 0.33 0.36 0.35 0.34 0.32 0.32 0.26 0.28 0.25 0.22 0.20 0.22 0.23 0.27 0.30 0.35 0.37 0.37 0.40 0.41 0.38 0.35 0.39 0.40 0.44 0.43 0.44 0.49 0.51 0.51 0.50 0.60 0.69 0.84 0.78 0.77 0.70 0.63 0.69 0.76 0.88 0.91 0.83 0.80 0.83 0.85 0.87
0.68 0.68 0.66 0.58 0.42 0.46 0.45 0.45 0.43 0.43 0.35 0.38 0.39 0.38 0.38 0.39 0.40 0.41 0.38 0.44 0.41 0.40 0.39 0.38 0.40 0.39 0.38 0.36 0.33 0.36 0.40 0.38 0.37 0.37 0.38 0.37 0.36 0.34 0.33 0.32 0.32 0.31 0.31 0.32 0.38 0.32 0.30 0.28 0.25 0.24 0.19 0.17 0.20 0.21 0.21 0.25 0.28 0.30 0.34 0.38 0.40 0.40 0.39 0.40 0.42 0.45 0.45 0.46 0.44 0.45 0.48 0.58 0.61 0.85 0.73 0.77 0.75 0.73 0.72 0.70 0.72 0.68 0.69 0.65 0.70 0.82 0.76 0.80
Wind_Speed
15 15 15 15 15 15 15 15 15 15 15 14 14 14 13 13 13 13 13 13 13 13 13 13 13 12 12 11 10 10 10 10 10 10 10 9 9 9 10 10 12 14 14 15 16 18 18 19 19 18 17 16 15 14 13 12 11 9 7 7 6 4 5 4 4 6 7 8 10 11 10 10 10 9 9 9 9 9 9 9 8 7 7 9 12 15 17 18
15 16 16 16 16 15 15 15 15 15 15 15 14 14 14 14 14 14 14 14 13 13 13 13 13 12 12 11 10 10 10 10 10 11 11 10 9 9 10 11 12 14 16 16 17 18 18 19 19 19 17 16 15 14 13 13 12 11 8 7 6 4 6 6 4 7 7 8 11 12 11 10 10 9 9 9 9 10 9 9 9 8 9 11 14 16 18 18
16 16 16 16 16 16 16 16 15 15 15 15 15 15 15 14 14 14 14 14 14 14 13 13 13 12 11 11 10 10 10 11 11 10 9 9 11 10 10 12 13 15 16 16 17 18 18 18 19 19 17 16 15 15 14 13 13 12 9 8 6 6 7 5 3 5 7 8 10 11 10 9 9 9 8 9 10 10 9 9 9 9 10 12 14 16 18 19
16 16 16 16 16 16 16 16 15 15 15 15 15 15 15 15 15 15 15 15 14 14 14 13 13 12 11 11 11 10 11 12 10 8 7 9 11 11 11 13 14 16 17 16 17 18 17 17 18 19 18 16 16 16 15 14 13 12 11 9 6 6 6 6 4 3 4 6 8 10 10 9 9 9 8 9 9 9 9 9 10 10 11 12 14 16 17 19
16 17 17 17 17 16 16 16 16 16 15 15 15 15 15 15 15 15 15 15 15 15 14 14 13 12 12 11 11 11 11 10 9 7 8 10 11 11 12 14 16 17 18 17 17 18 18 18 18 19 18 16 16 16 16 16 14 12 13 12 9 6 5 5 5 4 4 6 8 10 10 9 9 8 8 8 7 6 8 9 10 11 11 13 14 15 17 18
17 17 17 17 17 17 17 16 16 16 16 15 15 15 16 16 16 16 15 15 15 15 14 14 12 12 12 12 12 12 12 10 8 8 10 10 10 12 12 15 16 17 18 18 18 18 18 18 19 19 18 17 17 17 16 16 16 13 13 12 11 9 6 5 5 5 5 6 8 10 10 9 9 8 8 7 6 6 9 10 11 11 12 13 15 15 16 18
18 18 18 18 18 18 17 17 17 16 16 16 16 16 16 16 16 16 15 15 15 15 14 13 13 12 12 13 12 13 14 12 9 9 10 10 11 11 13 15 17 18 19 19 19 19 19 19 19 19 18 18 18 17 17 17 17 16 13 12 11 10 8 7 6 6 6 6 8 9 10 10 10 8 8 8 7 8 9 11 11 12 12 13 15 16 16 18
19 19 19 19 19 18 18 18 17 17 17 16 16 17 16 16 16 16 16 15 15 14 13 13 13 13 13 13 13 14 14 12 10 11 11 11 11 11 13 15 17 18 19 19 19 19 19 20 20 19 18 18 17 17 17 17 17 18 16 13 11 11 10 9 9 8 7 7 8 9 10 10 10 8 9 9 7 7 9 11 12 12 12 13 15 16 17 17
19 19 19 19 19 19 19 18 18 17 17 17 17 17 17 17 17 16 16 15 14 14 13 13 13 13 13 13 14 14 12 11 11 12 11 11 11 12 14 16 18 19 18 19 20 20 19 20 21 19 18 18 18 17 18 18 16 17 18 16 13 12 11 11 11 10 9 8 9 10 10 10 10 8 9 10 7 8 10 11 11 12 13 14 15 16 17 18
19 19 19 20 20 19 19 19 18 18 18 18 18 18 18 17 17 16 15 14 14 13 13 13 13 13 13 14 15 13 11 12 12 12 12 13 13 14 15 16 18 19 18 19 20 21 20 19 20 20 19 17 18 18 18 18 16 14 16 17 16 14 13 12 12 12 11 10 10 11 10 10 10 9 8 9 9 10 11 12 12 12 13 14 15 16 16 18
20 20 20 20 20 20 19 19 18 18 18 18 18 19 18 18 17 16 15 14 14 13 13 13 13 14 14 15 16 13 12 14 13 13 13 13 14 16 17 17 19 19 19 19 20 21 21 20 19 19 18 17 18 18 18 20 18 16 15 16 16 16 15 15 14 14 12 11 12 11 9 9 10 10 9 9 10 11 12 12 12 13 13 14 15 16 16 17
21 21 21 21 21 21 20 20 19 19 18 18 18 18 18 17 17 16 15 14 14 14 13 13 14 13 14 16 15 13 13 14 14 14 14 14 16 17 18 18 19 20 19 19 20 21 22 21 19 20 18 16 17 17 17 19 20 19 17 16 17 17 17 18 17 16 14 13 14 12 10 10 11 11 11 11 12 12 13 13 13 14 13 14 15 16 16 18
22 22 22 22 22 22 21 21 20 20 20 19 19 19 18 17 16 15 15 14 15 14 13 13 14 13 15 15 13 13 14 14 14 15 14 15 16 18 19 19 19 20 20 20 19 21 23 22 21 22 19 17 17 15 14 17 19 19 18 17 17 17 18 19 18 18 17 15 16 14 11 11 12 12 12 12 13 13 14 15 14 14 14 14 15 15 16 18
22 22 22 23 23 23 23 22 22 21 21 20 20 20 19 18 17 15 15 15 15 14 13 14 14 14 16 14 12 13 14 14 15 15 15 16 17 18 20 20 20 20 21 21 20 20 22 22 22 22 21 20 18 14 15 17 18 18 18 17 17 17 16 18 19 19 18 17 17 15 12 12 12 14 15 14 14 15 15 16 15 15 14 14 15 15 17 18
23 23 23 23 23 23 23 23 22 22 22 21 21 21 19 18 17 16 16 16 15 14 14 14 14 15 15 14 12 13 13 14 15 15 16 17 18 19 20 21 21 21 21 21 21 20 21 23 23 22 21 22 21 17 17 18 18 18 18 18 18 17 16 17 19 20 19 17 18 16 13 13 13 15 16 14 15 16 14 15 16 16 15 15 15 16 16 18
23 23 23 24 24 24 23 23 22 22 22 21 21 20 19 18 17 16 16 16 15 14 14 14 14 15 15 13 13 14 14 14 15 16 17 18 18 19 20 21 22 22 21 21 21 21 22 22 23 23 22 22 21 19 18 19 19 19 19 18 18 19 17 15 17 20 20 18 18 18 14 12 13 15 16 15 16 15 14 17 17 17 16 16 15 15 17 18
24 24 24 24 24 24 23 22 22 21 21 21 20 19 18 17 16 16 16 15 15 14 14 14 14 15 15 13 14 14 14 15 15 16 17 18 19 19 19 21 22 22 22 22 22 21 23 23 22 22 22 22 21 20 20 20 20 19 19 19 18 19 18 16 16 19 21 19 19 20 16 13 13 15 16 17 18 16 17 18 18 18 17 16 16 16 17 18
25 24 24 24 24 24 23 22 21 20 20 20 19 18 17 16 16 16 16 15 15 15 15 14 14 15 14 13 14 15 15 15 15 16 17 18 19 20 20 21 22 23 23 23 23 23 23 23 23 22 22 23 23 23 22 21 20 19 20 20 20 19 20 19 17 17 20 21 20 20 18 16 15 14 16 18 18 18 19 19 18 19 18 17 17 16 17 18
25 25 25 25 24 24 23 21 20 20 20 19 18 17 17 16 16 16 15 15 15 14 14 14 14 15 14 14 15 16 16 16 16 16 17 18 19 20 21 21 22 24 24 23 24 25 23 23 24 24 23 24 25 25 24 22 20 20 21 21 22 20 20 21 19 17 19 21 21 20 19 19 17 15 15 18 19 20 20 18 18 19 19 18 17 17 17 18
26 26 25 25 25 24 23 21 20 20 19 17 18 17 16 16 15 14 15 16 15 15 15 15 15 16 16 16 16 17 17 17 16 16 16 17 19 20 21 22 23 24 24 23 24 25 25 24 25 25 25 25 26 26 26 24 21 19 20 21 23 23 20 20 21 20 18 19 21 21 20 19 19 18 17 18 19 20 19 18 19 19 19 19 18 18 18 18
26 26 26 25 25 24 23 22 20 20 18 16 17 16 14 15 14 14 16 16 15 15 16 15 15 16 16 16 16 16 16 15 15 15 16 18 19 20 21 22 23 23 25 25 24 25 26 27 27 27 26 25 26 26 27 27 24 21 19 19 22 24 22 19 19 21 20 19 20 21 21 20 20 19 19 20 20 20 20 20 21 21 19 19 19 19 18 18
26 26 26 25 25 24 23 22 21 20 18 16 15 14 13 14 15 15 17 16 15 15 16 16 16 16 15 16 16 16 16 16 15 14 16 18 19 20 21 22 24 24 25 26 25 25 27 29 28 27 26 26 26 26 28 28 26 23 21 19 19 21 23 21 19 21 21 19 19 21 21 21 21 19 20 22 21 20 21 21 21 21 20 19 19 19 19 19
26 26 26 25 25 24 22 21 20 19 18 16 14 13 14 15 15 16 16 17 16 16 16 16 16 16 15 15 15 16 17 16 15 15 15 18 20 22 22 22 25 25 26 28 27 26 27 28 28 27 26 27 27 26 27 28 27 25 23 22 20 20 22 21 19 20 20 19 18 20 20 20 21 20 21 24 22 21 22 22 21 21 21 20 20 19 19 20
26 26 26 25 25 23 22 21 19 18 16 16 14 13 15 15 15 16 16 17 16 15 15 15 16 16 15 15 15 16 16 16 16 15 16 18 19 21 23 23 25 26 26 28 29 29 27 26 27 29 29 28 29 27 27 27 27 28 27 24 22 21 22 22 19 19 21 21 20 19 19 19 21 21 22 23 22 21 23 24 23 21 21 20 20 20 19 20
25 25 25 25 24 22 21 19 16 16 16 16 14 14 15 15 15 16 16 16 16 15 14 14 15 15 14 15 15 16 16 16 17 15 16 19 19 20 22 24 25 27 27 29 30 29 28 26 26 29 31 30 29 28 28 27 25 27 29 28 25 23 22 23 22 19 19 22 22 21 19 19 21 23 22 22 22 22 23 25 24 21 20 20 20 20 20 20
25 25 24 24 23 21 19 16 15 16 16 14 14 16 16 15 15 15 15 15 15 14 13 13 14 13 14 14 14 15 15 16 15 15 16 17 19 21 22 23 24 26 27 27 28 28 28 28 26 27 30 31 30 29 29 28 25 24 26 28 30 28 24 23 23 21 19 19 20 23 22 18 20 23 24 23 23 24 24 25 24 22 21 22 21 20 20 20
25 24 24 23 22 20 17 15 16 17 15 14 15 16 16 15 15 14 14 15 14 13 13 13 13 13 14 14 15 16 15 15 16 16 16 16 18 20 21 23 24 25 26 26 27 28 29 31 29 28 30 31 30 30 29 28 27 24 22 24 28 30 29 25 22 23 23 20 19 22 23 20 20 22 24 25 25 25 25 24 24 24 23 23 22 21 21 21
24 24 24 22 21 19 16 16 16 15 14 15 16 16 15 15 14 13 14 14 12 12 13 13 13 15 16 16 16 17 17 17 17 16 16 17 18 20 21 23 24 25 26 27 28 27 28 32 32 30 29 31 30 29 29 29 28 26 23 22 23 27 30 28 24 23 23 23 22 22 23 22 21 20 22 25 27 26 26 25 25 26 26 25 23 23 23 22
24 24 23 21 20 18 16 15 16 15 14 15 16 15 14 13 13 14 15 15 12 12 13 13 14 15 16 17 16 16 17 17 17 16 17 19 19 19 21 22 24 26 27 29 29 27 26 29 32 31 29 30 30 29 30 31 29 27 26 23 22 23 27 28 27 25 24 25 25 25 25 23 20 20 22 24 26 27 26 25 25 26 27 26 25 25 24 23
24 23 21 20 17 15 15 15 14 15 15 15 15 14 13 12 13 14 15 14 12 12 13 13 14 15 16 17 16 15 16 17 17 18 18 19 19 20 22 22 23 26 27 29 30 31 29 27 30 32 30 30 30 29 30 31 29 27 27 25 22 23 24 26 27 26 26 27 27 27 27 24 20 20 22 23 24 24 24 24 25 26 27 27 26 26 25 24
23 22 20 17 15 14 15 14 13 14 14 14 14 13 12 11 12 14 14 12 12 12 13 13 13 14 15 16 15 14 16 16 17 18 18 17 19 20 21 21 22 24 26 28 29 31 32 30 29 31 32 31 30 30 29 30 29 28 27 26 24 23 23 24 26 27 27 27 27 28 29 27 24 21 20 22 24 24 24 24 25 26 27 27 27 26 25 24
22 21 18 16 14 14 14 14 14 14 13 13 12 11 10 11 12 13 12 11 12 12 12 11 11 12 13 15 15 14 15 16 15 16 17 17 17 18 18 19 19 22 24 26 28 30 32 34 31 30 32 32 32 30 29 30 30 29 27 27 26 23 23 24 25 27 28 27 26 27 29 29 27 24 21 20 22 25 25 24 25 27 27 27 28 27 25 24
21 20 17 14 14 13 13 14 14 13 11 11 11 9 9 11 11 10 9 8 9 10 10 11 11 12 13 14 14 14 15 15 14 15 16 17 18 17 18 19 20 21 22 23 26 28 30 33 35 33 31 32 33 32 30 30 30 31 29 28 27 25 24 25 25 25 27 27 27 28 28 28 28 26 26 23 20 22 25 26 25 26 27 27 28 29 27 26
21 18 14 12 13 13 13 13 12 11 10 9 9 8 9 11 9 8 8 7 8 9 10 11 12 13 13 13 12 12 14 14 13 15 15 16 18 18 18 17 19 22 23 23 24 26 27 29 34 37 33 32 34 35 32 30 30 31 31 29 29 27 25 24 24 25 25 25 27 30 28 27 26 25 26 27 24 21 21 24 25 25 26 26 27 29 28 27
19 15 12 11 12 12 12 11 10 9 9 8 8 9 10 10 8 7 7 7 8 10 10 11 13 14 13 12 11 12 13 12 12 14 15 15 16 17 16 15 15 19 21 23 23 25 28 27 28 34 36 34 34 35 34 31 30 30 31 31 31 29 26 23 23 25 25 24 25 28 28 26 24 23 23 26 28 26 22 21 23 25 26 25 26 28 28 27
16 12 10 10 10 10 10 9 9 8 8 8 8 8 8 8 7 7 7 9 10 10 11 12 12 13 12 11 10 10 12 14 14 14 15 15 15 15 15 15 15 16 19 21 22 23 27 27 25 28 34 37 35 34 36 35 30 28 31 33 32 30 28 26 24 24 25 24 24 26 27 27 25 24 24 25 27 29 28 24 23 24 25 25 25 27 28 27
14 11 9 8 10 10 9 8 8 7 7 7 8 8 7 6 8 9 9 10 11 10 12 12 9 10 11 11 11 9 10 14 14 14 14 15 15 15 15 16 16 17 18 20 22 23 24 25 25 24 28 34 36 35 36 38 34 29 28 31 31 30 30 28 25 23 24 24 23 25 27 27 27 25 25 27 26 27 29 27 25 24 25 25 25 26 28 28
13 10 8 8 10 10 9 8 7 6 6 7 7 7 7 7 7 8 9 10 10 10 11 11 9 9 11 12 12 10 11 12 11 12 15 15 15 16 16 16 16 17 18 20 22 23 23 25 26 25 25 28 32 34 34 37 40 35 27 26 29 31 31 30 27 24 24 23 22 24 25 25 26 26 25 28 28 26 27 28 27 27 27 26 25 26 28 28
12 9 7 9 11 10 8 6 6 5 6 7 6 6 6 6 6 7 8 8 9 9 9 9 9 9 10 12 13 13 13 14 13 14 15 15 15 15 15 17 17 17 18 20 22 23 24 25 26 26 27 27 28 31 33 34 38 38 32 27 28 30 30 31 30 26 24 22 21 23 23 23 24 25 25 27 28 28 28 28 28 29 29 28 27 26 27 29
10 8 7 11 12 9 7 6 5 5 5 6 5 4 4 5 5 6 7 7 8 9 9 9 9 10 11 11 12 14 15 15 16 16 16 16 17 16 16 17 18 18 18 20 23 23 24 26 27 27 28 29 29 29 32 32 33 36 36 32 29 29 30 30 30 30 26 22 20 20 21 22 23 24 25 25 25 27 29 29 28 29 29 29 29 28 28 28
10 8 8 12 11 8 7 6 5 5 5 4 4 4 4 5 5 5 6 7 8 9 9 10 11 11 12 13 13 14 16 16 18 19 19 19 19 18 17 16 17 18 19 20 21 22 23 25 28 29 28 29 31 30 31 34 32 32 35 36 32 29 30 30 29 30 30 26 22 20 18 18 20 23 26 25 22 22 25 28 28 28 29 29 29 29 29 29
10 8 9 12 11 8 7 5 3 4 4 3 2 3 4 5 6 6 6 7 8 8 8 11 11 11 12 14 15 16 17 19 20 19 19 19 19 18 16 16 18 19 19 20 20 20 22 24 27 30 29 29 30 30 31 33 33 32 33 36 35 31 31 30 28 28 29 28 26 23 20 16 15 17 21 25 25 21 20 24 25 26 28 29 28 29 29 29
9 8 8 10 9 7 5 3 2 3 3 2 3 3 4 5 6 6 6 7 7 7 8 9 9 9 11 12 14 16 17 19 20 20 20 20 19 19 18 17 18 20 20 20 20 18 20 24 26 28 29 29 29 30 29 30 32 32 32 34 37 36 33 31 29 27 27 29 28 25 22 19 15 15 17 20 23 23 20 21 24 24 25 27 28 28 28 28
9 7 7 8 9 7 4 3 3 3 3 3 3 3 4 5 6 6 6 6 6 7 8 9 8 8 11 13 15 17 17 17 18 18 19 20 19 19 20 20 19 20 19 19 20 19 19 23 25 26 28 29 30 30 30 30 32 33 33 34 37 38 36 33 30 26 25 28 30 27 25 21 17 16 17 17 18 20 20 21 22 23 22 24 26 26 26 28
8 6 6 8 8 6 5 5 5 3 3 3 3 3 3 4 5 6 7 6 7 8 8 7 8 9 12 14 15 17 18 17 17 16 17 19 19 19 19 19 19 21 20 19 21 22 21 22 24 25 27 29 28 27 27 28 30 31 35 37 37 38 37 35 31 27 26 28 29 27 27 26 22 18 17 19 20 19 19 19 21 23 23 23 23 23 23 24
7 6 6 6 7 7 6 6 6 4 3 4 4 4 4 4 4 4 7 7 6 8 9 8 9 11 12 14 16 17 17 16 16 15 15 17 18 19 19 19 20 22 21 20 23 24 23 24 25 26 29 30 27 24 23 24 27 29 32 35 37 39 37 34 31 31 29 28 29 28 24 24 26 24 19 18 19 19 18 18 17 20 24 24 22 22 22 22
7 6 6 5 5 6 7 7 7 6 4 4 4 4 5 6 5 5 6 7 8 9 9 8 10 11 12 14 15 15 15 14 14 15 15 16 16 18 19 19 20 20 19 21 24 24 24 26 27 29 31 32 31 29 26 26 27 29 31 30 32 36 39 37 35 35 32 29 30 31 26 22 22 23 20 18 17 16 17 17 16 17 19 20 20 21 23 23
7 5 5 4 4 5 6 7 7 7 6 6 5 5 6 7 7 7 7 8 9 10 9 8 10 11 12 14 15 15 14 13 13 13 13 13 14 15 17 18 19 19 19 21 23 24 24 26 27 29 31 32 32 32 30 28 28 30 32 31 29 32 37 40 39 38 35 31 29 29 28 26 21 17 18 19 17 16 16 17 18 18 17 17 17 19 21 22
7 5 5 4 4 5 6 6 6 7 7 7 6 6 7 7 8 9 9 9 9 9 10 10 10 11 13 13 14 14 13 12 12 11 11 12 13 14 15 16 17 18 19 20 21 22 23 25 25 27 29 31 33 32 31 30 30 31 33 33 31 30 35 39 40 40 39 36 32 29 29 29 24 17 16 18 17 17 17 16 18 19 18 17 16 16 18 19
7 6 5 5 5 5 6 6 5 6 7 7 7 7 8 8 9 10 10 10 10 9 10 11 12 12 13 13 13 13 12 12 12 12 12 13 13 13 13 14 15 16 17 18 19 21 22 23 24 25 26 30 32 33 33 32 32 33 34 35 33 32 34 37 38 40 41 39 36 33 32 32 28 20 18 19 19 19 19 18 18 19 19 19 18 18 19 19
7 6 6 5 5 5 5 6 5 6 7 7 7 8 8 9 10 10 10 10 11 11 11 12 12 13 13 12 12 13 12 11 12 13 13 14 14 13 13 13 14 15 17 17 18 20 21 22 23 24 25 28 29 32 34 34 33 34 37 37 37 36 35 36 36 38 40 40 38 36 35 34 31 25 22 22 21 20 20 20 19 18 18 20 21 20 20 21
7 6 6 5 4 4 5 5 6 6 7 8 8 8 9 9 10 11 11 10 11 11 11 12 12 12 12 12 12 12 12 11 12 13 14 15 16 15 15 14 15 16 17 18 18 19 21 22 22 23 24 26 27 28 31 32 33 34 36 37 38 38 36 36 36 37 39 40 38 37 36 35 31 28 27 26 23 21 20 20 20 20 20 22 23 22 22 22
Wind_Direction
327 325 323 321 319 317 315 313 311 310 308 307 305 303 302 301 300 298 297 296 295 294 293 293 291 289 285 280 273 270 270 264 256 247 241 239 236 230 226 221 216 210 203 202 201 200 201 204 206 205 208 210 212 214 212 213 214 212 216 216 214 213 199 191 178 169 166 173 171 165 160 153 152 148 145 150 152 150 149 150 146 136 141 153 151 150 153 156
326 324 322 320 318 316 314 312 310 309 307 305 303 302 301 299 298 297 296 296 294 294 292 291 290 286 284 279 271 268 265 259 254 250 245 239 236 236 231 221 214 207 201 201 201 200 202 204 205 205 209 214 213 214 215 212 210 213 219 217 216 215 207 203 168 148 154 170 171 168 166 159 159 155 156 157 149 152 152 147 144 136 139 146 150 153 154 158
326 324 322 320 317 315 313 312 310 308 306 304 303 301 299 297 296 295 294 294 294 293 291 289 287 282 280 276 271 266 260 258 253 246 243 238 238 239 231 218 211 206 202 203 202 200 202 204 204 205 210 215 215 215 215 211 211 215 219 220 223 225 212 195 169 154 155 167 169 168 168 162 162 160 164 162 151 157 158 150 151 146 145 147 153 157 157 160
326 324 322 320 318 316 313 312 309 308 305 303 302 300 299 297 295 293 292 292 291 291 290 288 284 278 275 272 272 266 257 256 247 238 244 245 241 238 229 216 209 205 203 207 206 203 204 204 205 206 210 215 216 217 216 213 213 216 219 221 226 238 220 191 178 173 170 177 173 171 173 169 170 168 170 166 160 166 165 160 159 154 153 153 157 160 161 162
325 324 322 320 318 316 313 311 309 308 305 304 302 300 299 297 295 293 291 290 289 289 286 285 280 274 272 270 270 263 255 250 242 246 254 251 243 236 227 214 208 204 203 209 209 207 207 205 206 207 211 216 216 217 218 217 217 222 227 223 223 235 224 200 196 189 188 190 181 179 179 178 174 173 178 169 165 176 172 169 163 159 158 157 161 164 166 166
324 322 320 319 317 316 313 310 308 307 305 303 302 300 299 297 295 293 292 290 288 287 284 281 275 271 271 270 267 257 250 245 245 255 253 250 244 234 223 212 208 205 205 211 210 209 210 207 207 208 212 217 219 219 220 220 220 225 231 226 224 230 228 217 206 198 200 195 187 185 183 182 176 180 185 163 166 192 180 172 165 163 163 160 163 166 170 172
322 320 319 317 316 314 311 308 306 305 303 302 301 299 298 297 295 293 292 290 288 286 282 277 272 269 270 269 264 253 247 244 247 257 254 250 244 231 218 209 207 205 207 213 210 210 211 208 209 210 213 217 221 222 222 223 223 227 232 232 231 232 231 224 211 208 210 201 192 188 189 190 183 185 187 168 178 191 171 164 163 163 165 163 166 168 172 175
321 319 318 316 314 313 310 307 304 303 302 300 299 298 297 296 294 293 291 290 288 285 279 275 272 269 268 265 261 254 247 245 250 256 254 247 239 225 213 208 208 206 209 214 211 210 212 210 211 211 215 218 222 223 223 225 226 228 232 234 234 232 230 224 215 216 215 207 200 196 196 194 188 188 188 179 180 175 159 158 161 164 167 167 170 171 172 176
320 320 318 316 315 312 309 306 303 301 300 299 298 297 296 294 292 291 290 289 286 282 277 274 271 269 266 261 260 257 248 249 255 254 249 243 234 220 212 210 209 207 212 214 212 212 212 212 212 213 218 222 225 226 223 224 226 227 230 233 235 232 228 223 218 217 215 210 203 201 200 193 190 193 192 185 177 166 161 161 163 167 170 171 174 175 174 176
321 320 319 318 316 314 310 307 304 301 299 298 297 296 295 293 291 289 287 286 282 279 277 273 271 268 263 259 260 256 250 254 255 251 246 240 230 218 216 215 210 210 215 215 213 213 213 214 214 215 223 228 229 229 224 223 225 225 227 233 236 234 229 223 221 218 216 216 210 205 203 198 195 199 196 186 179 172 167 167 168 170 173 174 176 178 177 178
321 320 320 319 317 315 311 308 305 302 300 299 297 295 294 292 289 286 284 282 279 279 277 274 271 265 261 259 258 258 257 257 253 250 244 236 228 221 220 218 213 215 217 215 215 215 214 216 216 217 223 228 230 230 226 226 230 231 231 234 236 235 232 227 224 222 219 220 218 209 204 204 201 203 205 194 186 181 177 176 174 173 175 177 178 179 180 180
320 320 319 318 316 314 311 308 305 302 301 300 298 297 294 291 288 285 281 278 279 280 277 274 270 263 262 259 256 261 262 255 249 249 243 236 230 224 223 221 218 219 219 217 217 217 217 217 219 219 220 224 227 229 228 227 230 234 235 237 236 234 232 228 226 224 221 222 219 212 208 210 210 209 208 202 194 188 185 181 179 177 175 178 179 180 182 181
319 318 318 317 316 314 311 307 304 301 300 299 298 297 294 290 286 282 278 277 281 280 274 274 268 262 264 259 255 261 261 252 248 247 242 238 232 227 226 225 223 223 222 220 219 220 219 219 221 222 222 224 224 227 230 227 227 231 232 234 236 235 233 227 224 224 222 220 214 210 217 219 216 213 209 206 198 195 193 186 183 181 177 179 180 180 184 182
317 317 317 317 315 313 310 306 303 300 300 299 298 296 292 288 283 279 276 278 281 275 271 273 266 263 264 259 255 258 258 252 246 243 242 238 233 229 228 227 227 225 224 224 223 222 221 221 223 224 226 226 228 233 232 226 225 227 228 229 231 235 235 226 221 222 221 218 211 211 223 224 220 216 210 206 199 198 201 193 186 185 180 180 180 180 184 184
315 316 316 316 315 312 309 306 302 300 300 299 298 295 291 286 281 277 276 278 278 270 270 270 263 264 263 256 255 258 258 252 246 244 245 239 232 231 228 227 227 224 224 226 225 223 221 221 223 224 225 225 230 236 231 225 223 223 224 225 226 230 236 227 218 220 219 216 212 214 224 225 225 220 207 204 204 201 203 198 190 188 184 181 182 182 184 185
314 314 316 316 314 312 309 306 302 301 300 299 298 294 290 285 279 277 276 278 275 266 267 268 264 265 264 260 257 258 259 256 252 248 244 238 235 233 228 225 225 223 224 225 226 224 220 220 223 224 225 224 225 228 227 225 222 220 222 224 224 224 230 228 216 217 218 215 215 219 224 227 227 218 204 202 205 197 199 202 194 189 187 184 183 183 184 185
313 314 315 315 314 312 309 306 303 301 301 300 297 292 289 283 277 277 276 276 272 264 264 267 267 264 261 261 258 260 266 264 258 250 241 237 237 234 228 225 223 222 223 224 225 224 220 219 221 223 224 223 221 222 223 222 219 218 220 224 226 223 225 224 213 213 216 216 220 221 221 226 225 215 205 204 201 194 201 207 198 191 190 187 185 185 185 186
312 313 314 314 314 312 309 306 303 302 302 301 296 291 288 282 277 278 275 273 271 264 262 263 264 261 257 259 262 267 271 265 258 249 241 238 237 233 228 226 223 221 222 224 223 223 221 219 220 222 223 222 220 218 220 220 219 219 218 221 226 225 224 221 215 215 215 216 219 219 218 220 218 212 206 205 202 198 206 210 201 194 191 189 187 186 187 187
312 313 314 314 313 311 308 306 302 302 304 302 297 290 286 281 276 275 272 267 266 267 265 262 263 261 258 262 268 271 267 261 256 249 242 238 235 232 228 226 224 221 222 223 222 221 220 219 220 222 221 220 220 219 220 222 223 223 220 221 224 225 225 221 218 218 217 218 220 221 220 217 212 212 211 209 206 205 209 210 206 199 191 190 189 188 189 190
312 312 313 313 313 310 307 304 301 302 303 302 299 289 281 282 274 269 275 269 267 272 270 267 268 265 263 265 271 272 263 256 255 251 245 239 235 230 227 226 224 223 223 223 222 220 220 222 221 222 222 220 220 221 223 224 228 230 225 224 224 225 227 222 217 218 219 222 223 223 224 220 215 214 214 211 209 211 210 207 209 203 193 192 192 189 189 191
312 312 312 312 312 309 305 302 300 300 299 296 296 290 283 289 279 273 282 274 267 271 269 269 270 266 266 268 272 272 264 256 254 252 246 240 235 230 226 226 224 224 224 223 223 221 221 225 224 222 222 223 222 222 223 224 228 230 227 227 225 224 227 223 217 217 218 223 225 224 226 226 220 214 213 212 212 214 210 207 210 205 196 194 194 192 191 191
311 311 311 311 310 308 304 300 298 297 296 289 289 289 287 290 282 277 280 272 267 268 267 267 266 266 268 266 267 269 265 257 251 251 247 240 236 231 228 227 227 226 224 223 223 221 223 227 226 223 223 224 224 223 223 224 226 226 224 227 227 223 224 224 221 216 215 222 226 225 227 229 223 218 217 214 213 216 214 213 213 205 197 196 196 195 193 192
310 310 310 309 309 307 302 299 296 294 290 285 285 287 286 285 283 279 275 272 269 264 263 265 263 266 268 264 265 267 264 258 253 252 248 241 237 233 232 231 230 229 226 223 224 223 226 227 225 224 223 223 224 223 223 223 224 224 223 224 225 224 223 222 220 214 213 222 227 225 227 229 225 222 220 215 213 216 217 219 218 208 200 198 198 197 196 195
310 310 309 309 307 305 301 298 293 288 284 281 282 284 284 283 283 279 272 271 267 259 262 266 263 266 269 266 264 264 264 258 254 254 248 244 241 236 235 235 232 231 228 226 226 227 229 227 224 224 223 222 223 223 222 223 223 224 224 223 223 226 226 224 220 216 218 224 227 226 228 229 225 222 220 216 214 216 216 215 212 207 202 198 199 200 198 197
310 309 309 308 307 304 301 295 289 287 283 277 279 285 284 281 281 277 272 270 262 254 256 260 261 264 266 264 260 263 263 255 253 255 249 247 245 240 237 236 234 232 230 227 228 230 229 227 224 223 222 221 223 222 221 223 223 224 224 224 224 228 229 228 225 221 221 224 221 222 228 228 224 224 224 217 215 216 215 212 209 206 205 202 200 200 199 199
310 309 309 307 306 304 298 290 288 289 283 278 282 286 282 279 278 272 270 268 257 248 250 255 260 262 263 262 260 264 261 252 252 254 250 248 246 243 240 236 233 232 233 230 230 231 229 226 225 223 222 221 222 223 221 221 223 224 222 223 225 228 230 231 228 224 223 225 220 218 225 229 224 223 224 220 216 215 213 212 211 207 205 205 204 201 200 201
310 310 309 306 305 302 295 289 290 289 283 284 288 286 281 278 273 265 266 266 254 248 251 255 261 263 264 265 262 262 261 256 255 252 250 250 244 241 240 237 233 232 233 232 231 231 227 226 225 223 223 222 222 223 220 219 222 224 221 222 223 224 227 230 230 226 227 233 230 220 221 229 230 223 221 221 220 217 212 213 213 209 207 208 207 204 203 203
311 310 309 306 303 299 292 289 290 289 287 288 288 286 282 276 266 258 263 265 255 250 256 260 264 264 266 267 261 262 265 260 255 251 251 251 245 240 240 239 238 235 232 231 232 230 226 226 225 223 223 223 221 221 220 219 222 224 223 223 224 223 225 228 230 229 230 235 234 224 221 227 230 225 221 219 220 218 215 214 214 211 209 208 207 206 204 203
312 310 308 306 302 297 291 288 288 289 289 288 286 286 281 271 261 257 260 263 257 253 260 265 264 264 268 266 259 262 265 257 255 258 256 251 245 242 242 242 241 239 235 233 234 232 228 226 225 224 223 223 222 221 221 222 223 223 224 224 223 224 225 226 228 230 232 235 232 227 226 228 229 226 222 219 218 218 217 215 213 210 209 208 208 208 206 204
313 311 308 305 301 297 292 287 285 287 289 287 285 285 277 263 259 257 256 257 255 256 263 267 267 267 272 267 256 261 264 257 260 264 257 251 246 244 244 243 242 240 238 236 234 234 232 228 225 225 224 222 223 222 221 222 221 221 223 224 223 224 225 225 227 228 232 234 230 228 229 230 230 226 222 220 218 218 217 215 212 210 209 209 209 209 208 205
315 312 308 302 298 298 293 289 290 291 288 286 286 283 270 259 258 259 258 259 259 259 261 268 270 266 270 267 258 263 263 257 261 262 254 249 246 244 242 240 238 237 236 236 234 233 232 229 226 225 224 221 222 222 220 219 219 219 220 222 222 221 222 224 223 224 228 231 228 227 228 231 231 225 221 220 217 217 218 215 211 209 209 210 210 209 208 207
317 312 306 299 295 296 292 292 297 292 285 285 284 276 264 259 257 257 260 259 259 262 261 267 272 267 270 265 258 266 265 257 260 259 253 251 246 241 240 240 238 236 235 234 233 231 230 228 226 226 223 220 219 220 218 217 216 217 217 218 220 218 218 220 220 221 227 229 227 226 226 230 233 229 224 222 216 214 216 216 212 211 211 210 209 207 208 209
318 313 305 296 295 296 293 294 296 290 284 283 278 269 264 264 261 261 265 261 261 268 265 267 271 271 272 265 259 266 262 255 259 259 254 251 248 243 241 244 244 239 237 237 234 230 228 227 226 226 223 219 218 217 216 215 214 215 215 215 217 217 216 218 219 222 227 228 226 225 225 229 232 229 225 225 222 215 213 216 216 212 210 209 207 207 208 210
319 313 304 298 297 297 296 296 295 289 283 277 272 265 260 261 264 268 269 267 269 270 267 270 273 270 267 264 265 268 261 253 257 260 254 248 246 242 238 240 242 240 239 240 236 231 229 227 223 223 222 218 217 218 218 217 216 215 215 217 218 218 219 220 220 223 227 228 224 223 225 228 228 226 224 223 224 220 213 213 215 211 207 208 208 206 207 208
321 315 307 302 300 298 298 297 296 289 278 271 268 264 259 261 269 271 266 272 278 273 269 271 272 268 259 255 262 265 258 254 257 260 255 247 248 245 238 240 243 240 237 237 235 233 234 232 224 221 222 219 217 217 218 219 219 216 215 218 220 218 222 226 226 226 228 229 225 221 224 227 228 228 225 221 220 221 217 212 212 209 204 205 207 205 206 209
323 318 310 307 309 309 305 301 297 286 271 267 266 265 266 268 277 281 277 280 284 282 279 273 267 262 255 254 260 258 256 259 262 262 254 247 249 247 243 246 248 243 239 237 236 234 232 232 229 224 221 219 217 216 216 218 220 217 215 219 220 219 223 228 229 228 227 229 226 223 224 225 227 228 225 221 219 217 216 213 212 208 201 202 207 206 206 208
327 321 313 316 322 317 309 304 297 282 267 265 265 271 280 278 280 283 281 282 282 281 280 274 264 261 263 266 262 258 268 267 261 258 254 246 244 245 246 249 249 246 244 240 236 234 233 233 231 227 221 218 215 216 217 218 219 219 217 218 218 220 223 226 227 225 224 227 225 223 224 222 222 224 221 219 218 214 213 212 212 209 203 204 207 206 207 208
327 320 314 328 331 321 313 306 294 278 267 267 267 275 283 284 289 289 284 283 279 275 274 271 270 272 270 269 266 267 275 271 262 261 256 249 247 249 252 251 248 248 246 241 235 232 234 233 228 224 223 219 215 216 219 218 218 221 222 218 216 218 219 221 222 222 221 225 224 222 223 222 221 221 217 215 215 214 213 212 211 211 209 209 208 206 208 209
325 317 318 337 336 324 317 306 292 278 269 273 277 277 279 285 298 298 288 283 278 275 277 275 272 271 267 269 272 273 271 269 269 266 258 252 251 251 254 253 251 252 249 242 236 233 231 231 227 223 221 221 218 217 218 216 214 218 222 222 219 219 218 218 220 222 221 223 223 221 222 222 221 219 217 216 216 216 216 215 214 215 215 215 213 210 209 208
328 321 328 341 336 326 317 302 291 284 275 284 290 288 290 291 299 302 293 288 280 273 278 280 272 269 272 276 275 271 271 271 268 263 259 256 253 254 258 257 253 254 252 245 239 235 231 229 228 225 222 221 220 216 216 216 213 213 217 220 219 217 217 218 219 220 221 223 222 221 223 225 224 221 219 217 215 216 217 216 217 217 217 217 215 214 212 209
333 329 334 339 334 326 315 301 294 294 290 294 294 293 300 298 303 308 297 291 284 274 277 281 275 274 278 279 278 276 274 272 269 264 261 257 255 256 258 257 255 254 252 244 237 233 230 228 227 226 223 221 220 217 217 218 216 214 216 218 218 216 215 216 217 216 219 223 223 222 224 226 222 218 218 216 213 215 215 214 215 216 217 217 215 214 214 212
332 331 336 339 337 332 324 315 306 308 312 311 309 315 305 294 301 305 297 292 287 280 281 282 280 281 281 278 281 284 278 273 271 267 261 257 255 256 257 257 257 255 248 241 235 233 231 229 228 226 225 224 222 219 219 219 220 221 220 218 218 217 215 216 217 215 216 220 222 223 224 222 213 207 211 214 213 214 212 210 211 214 215 216 215 214 214 212
340 343 345 349 351 346 339 345 342 330 341 331 312 327 317 301 305 305 304 303 293 285 287 288 289 287 286 286 286 287 285 280 275 268 262 257 255 257 261 262 258 252 246 237 234 235 232 228 227 226 226 226 224 222 223 223 221 222 223 220 219 218 217 218 219 218 219 219 217 218 220 216 205 201 206 208 209 212 212 209 210 212 213 213 214 214 213 213
348 347 355 3 2 354 351 8 13 4 10 359 330 341 337 325 323 317 318 319 305 299 297 293 292 285 285 292 292 289 290 285 277 269 262 257 255 257 260 260 254 248 243 235 233 235 233 227 225 224 222 222 221 221 223 222 220 221 222 219 218 218 219 220 219 220 223 219 215 215 216 211 200 197 202 203 204 210 213 212 210 209 210 210 211 212 214 214
344 344 357 8 12 19 31 27 22 30 38 30 15 4 350 341 336 318 316 321 311 308 306 299 295 292 293 298 297 295 294 287 278 269 261 256 254 254 256 254 249 245 241 239 236 235 232 228 225 223 219 216 216 217 220 222 221 222 220 218 217 218 218 220 219 218 219 217 216 215 213 211 207 201 203 208 210 210 212 213 211 208 209 209 208 210 212 212
350 353 356 6 19 34 45 37 28 35 43 33 19 6 353 355 3 336 320 327 324 311 307 305 301 298 302 305 303 300 296 284 273 266 261 258 255 254 253 251 248 244 241 241 238 233 231 230 228 227 224 222 222 223 224 226 225 223 220 219 219 218 218 220 219 217 215 214 215 215 213 215 214 208 207 209 206 204 205 208 210 207 206 207 209 210 210 208
356 356 2 13 23 32 39 35 32 34 31 18 7 3 357 351 355 352 335 333 332 320 312 311 310 308 311 311 308 306 298 282 270 265 262 259 257 255 253 251 249 242 235 236 234 230 231 232 231 231 229 228 230 231 230 228 227 226 224 225 226 222 218 219 219 217 215 213 214 214 214 216 213 208 204 198 194 196 197 200 203 198 195 199 204 207 209 209
7 9 18 19 15 26 32 30 34 38 31 21 11 359 355 351 347 346 341 335 331 327 322 317 314 314 315 314 312 310 302 286 274 268 265 263 263 260 255 251 247 239 234 234 232 228 230 233 232 232 232 230 230 231 232 229 228 227 225 226 229 224 217 217 218 216 215 213 213 213 214 213 209 203 196 192 194 200 200 200 203 198 194 200 205 206 208 209
11 17 28 24 20 31 33 26 30 35 29 23 18 7 356 353 349 342 338 334 330 331 329 320 318 319 317 315 314 311 303 289 277 270 269 268 266 264 260 253 245 240 238 236 231 227 229 232 232 233 234 233 230 230 231 230 228 226 224 223 225 223 218 216 218 218 217 216 215 217 217 213 207 204 202 201 202 203 203 204 206 204 204 209 212 211 209 207
9 11 17 23 31 32 28 25 23 27 26 15 8 6 357 351 350 343 336 334 330 330 329 324 322 322 319 316 314 309 303 292 280 273 272 269 266 263 261 254 246 239 236 235 232 229 228 229 231 233 235 232 230 230 230 229 227 225 224 222 221 221 220 218 218 219 218 218 217 219 220 215 209 211 215 213 210 207 207 209 209 211 213 215 217 219 215 212
15 14 3 5 23 17 11 19 16 14 17 8 360 1 356 353 353 344 335 334 332 331 330 327 326 325 321 317 314 310 305 293 281 275 271 267 266 263 260 256 250 241 235 234 233 231 229 230 230 232 234 232 230 231 229 228 228 226 225 222 220 221 221 220 219 219 217 217 217 218 220 216 214 220 223 218 215 214 213 212 213 217 222 222 224 226 222 218
12 16 3 354 10 8 360 10 10 4 7 5 1 360 354 353 353 346 338 337 334 333 332 329 328 327 323 320 319 317 310 298 287 282 276 269 265 261 257 256 253 247 240 236 233 231 230 230 230 231 233 232 231 230 228 227 228 225 222 222 222 222 224 224 222 220 218 217 217 218 218 217 219 225 225 220 218 218 217 218 221 228 232 229 227 226 223 221